Wind_Speed
35 39 35 28 34 34 37 52 63 68 70 75 74 75 68 64 59 61 59 56 52 47 53 58 54 46 41 45 43 40 40 38 34 31 31 29 28 29 29 29 28 28 28 29
39 43 36 40 41 37 38 42 56 60 64 72 73 76 72 67 59 60 59 57 56 50 55 59 47 37 34 41 40 38 37 35 33 32 32 31 32 32 31 30 29 29 31 31
32 27 33 39 43 44 38 38 40 52 55 68 71 73 64 64 63 62 62 59 58 53 52 61 58 44 38 40 38 36 36 35 34 32 33 32 32 31 30 30 31 32 33 32
27 19 27 32 39 41 40 32 35 38 45 55 62 67 64 54 65 65 61 60 58 54 53 48 46 51 43 39 39 37 36 35 33 34 33 32 33 33 33 35 34 35 33 33
15 22 21 25 11 31 27 33 32 36 37 47 56 57 60 48 53 63 60 59 60 56 50 53 44 49 45 42 39 38 37 37 33 33 34 34 34 33 35 35 35 35 35 35
25 27 24 26 22 24 25 34 35 47 40 42 52 57 66 55 55 57 61 60 58 57 45 51 46 50 47 40 42 40 39 36 34 35 34 33 34 35 35 37 38 38 37 38
7 8 5 10 17 23 30 36 46 48 33 33 33 50 61 44 39 53 58 55 59 55 45 45 48 49 52 50 44 42 39 36 34 35 35 33 36 37 38 39 39 41 40 41
11 7 10 11 9 8 24 32 50 41 15 24 22 39 49 44 36 45 58 55 57 55 45 45 42 48 47 47 44 41 38 36 36 37 35 37 39 39 40 40 42 42 43 45
14 24 13 11 7 15 30 40 18 17 15 19 35 22 29 48 39 41 48 53 52 53 51 44 41 54 56 49 39 40 39 39 38 37 38 39 40 40 41 43 42 44 47 50
23 19 17 15 26 41 34 19 36 18 19 31 29 26 27 41 43 39 46 49 54 50 44 44 41 47 50 44 39 41 40 39 39 41 41 41 41 42 44 45 46 49 51 45
22 17 14 12 27 28 25 19 18 18 10 25 27 28 30 29 46 37 42 47 52 52 46 41 36 44 43 41 40 46 43 41 41 43 40 42 46 46 49 52 52 53 48 47
20 10 13 11 26 19 23 21 25 20 17 27 12 19 25 34 38 37 38 44 44 45 41 41 40 40 41 41 39 37 41 36 41 47 43 41 43 45 50 52 52 45 48 52
12 23 22 19 20 23 23 17 20 15 18 28 16 14 27 34 39 35 30 34 38 45 40 40 33 40 42 46 41 34 31 32 36 27 31 32 34 36 38 43 43 48 46 45
15 23 31 26 23 21 22 20 15 17 9 19 15 13 27 33 35 36 32 31 36 41 42 34 38 47 31 30 31 29 28 30 33 44 38 33 41 41 41 43 39 46 40 45
9 17 22 22 29 28 17 17 14 12 3 10 13 23 25 20 34 38 35 30 35 44 38 35 40 35 36 38 34 34 35 36 39 37 40 38 36 37 35 34 39 42 46 43
5 10 19 27 32 31 28 21 7 9 15 19 20 21 26 23 31 34 34 36 34 39 40 44 38 40 43 37 35 37 33 36 43 40 38 35 29 30 36 44 40 36 33 31
6 5 11 21 26 18 24 27 20 17 19 28 28 25 33 22 26 32 36 39 45 42 37 41 34 42 47 43 33 35 35 37 39 37 35 31 33 31 34 36 34 30 29 32
10 5 8 17 28 27 25 27 23 24 22 29 28 30 30 31 24 29 29 36 40 38 34 36 37 37 28 26 29 28 31 31 29 29 25 25 27 29 31 30 30 30 33 37
5 10 13 22 25 25 27 20 17 23 24 23 28 26 25 33 32 31 34 33 34 37 37 29 28 24 26 23 21 24 24 22 25 24 23 24 23 26 29 31 34 38 41 44
5 4 13 15 18 25 19 21 20 20 27 20 20 33 31 29 29 31 27 25 25 26 25 24 23 20 20 18 19 17 13 14 17 20 21 26 30 33 35 39 43 45 48 51
6 1 9 19 15 21 15 19 20 18 19 18 20 18 16 18 20 23 23 24 21 23 19 19 15 14 14 13 10 9 13 17 20 23 26 30 33 37 41 44 47 51 54 55
7 4 7 12 16 16 16 18 18 18 14 17 16 17 15 16 17 18 15 14 13 11 10 8 8 9 11 13 15 19 22 23 26 29 33 35 38 42 46 49 53 55 57 60
18 11 9 13 21 16 11 13 24 22 18 15 19 20 17 13 15 16 12 9 7 4 3 5 7 10 13 17 21 25 29 32 34 37 40 43 45 48 51 53 55 59 58 57
22 16 12 13 16 13 11 6 13 18 19 13 20 16 15 15 12 7 4 1 4 7 9 10 12 15 18 21 25 28 32 35 38 42 45 48 50 52 54 57 55 54 57 59
27 21 14 12 16 12 11 13 15 13 12 10 13 10 9 9 6 4 4 6 9 12 14 17 21 24 27 30 33 36 39 42 43 45 48 51 53 55 52 55 58 57 57 58
29 24 19 16 18 18 13 13 12 11 9 12 13 7 4 3 4 7 10 13 16 19 22 24 27 29 32 35 38 41 42 45 48 50 50 48 50 54 56 55 56 60 63 64
Wind_Direction
274 269 264 259 254 242 234 228 228 223 219 222 222 229 220 219 221 220 222 223 223 217 220 224 218 222 211 211 217 219 223 225 223 220 224 226 227 230 231 235 241 249 256 256
282 273 270 259 254 249 236 230 224 223 222 220 219 225 225 219 217 219 221 221 223 218 217 228 214 227 222 211 214 219 223 225 221 217 220 223 227 231 235 240 246 254 257 254
281 285 266 257 249 247 241 233 223 225 223 220 219 222 223 219 218 218 217 217 222 217 224 226 232 227 230 212 215 216 222 224 220 220 223 227 232 237 242 245 250 254 254 255
315 293 279 265 250 243 236 232 221 217 216 218 218 224 219 221 215 216 216 216 221 221 223 227 235 230 234 220 219 216 221 224 222 221 224 230 234 236 239 245 253 257 257 256
310 292 288 272 274 234 222 221 216 190 209 212 207 224 210 218 213 217 215 214 220 219 222 229 233 224 235 213 219 218 219 224 224 226 226 231 235 239 245 251 255 257 257 258
298 285 279 252 236 220 204 206 199 187 184 203 212 218 213 225 219 215 214 214 218 217 221 223 226 229 227 228 223 220 221 222 223 226 229 233 237 242 248 253 256 259 260 261
13 47 327 205 209 208 209 196 190 195 197 197 205 221 216 212 214 213 214 213 218 217 219 221 225 223 232 233 228 222 221 222 225 230 232 236 241 245 249 254 258 259 263 265
46 24 350 292 280 171 215 198 195 186 208 210 216 229 223 204 206 211 213 212 215 217 219 221 225 221 221 231 225 226 223 223 228 231 236 241 245 249 252 256 260 265 267 268
20 35 55 60 172 195 198 161 137 180 240 232 218 234 223 209 207 213 213 211 213 214 218 221 229 218 221 231 213 224 225 225 229 234 237 241 247 252 255 258 262 266 269 271
27 59 65 72 137 146 149 178 181 168 212 212 235 236 221 210 204 208 212 211 207 209 216 216 223 222 222 218 218 222 228 229 232 236 238 244 248 254 257 261 263 269 269 268
31 55 74 95 147 156 190 190 198 204 192 201 225 231 222 213 203 208 212 212 207 212 218 228 228 231 211 213 228 242 233 239 235 240 245 253 255 256 258 257 261 262 265 262
41 68 75 158 136 140 148 163 193 194 199 209 217 208 207 192 196 203 214 217 212 208 219 221 229 233 213 232 228 223 231 227 238 247 247 258 259 266 268 274 265 253 265 278
51 68 109 148 167 167 174 168 181 186 235 228 252 211 192 190 198 201 211 212 212 211 216 217 229 222 219 224 238 236 244 231 238 250 251 264 263 254 251 232 241 262 270 261
17 54 65 79 139 171 174 187 191 209 271 257 239 194 187 188 195 203 203 203 201 206 208 213 235 229 215 220 248 227 238 244 264 240 243 244 239 245 238 251 260 258 261 264
305 66 78 83 95 142 173 195 216 216 168 189 174 168 174 159 182 189 197 196 192 209 208 218 221 221 208 213 221 216 247 255 249 246 242 246 249 252 253 252 256 257 262 261
306 49 84 95 107 115 108 158 155 93 98 130 170 165 187 172 175 179 183 179 190 204 201 195 210 209 211 227 230 228 231 239 248 235 236 247 249 246 250 255 256 249 262 286
275 312 64 104 108 130 124 100 110 88 93 114 118 147 152 165 168 178 187 190 193 202 209 209 214 217 215 215 216 224 221 238 237 248 253 249 245 248 241 245 266 285 297 292
251 222 59 101 120 122 100 87 95 106 96 97 105 107 120 143 156 182 196 193 191 194 203 205 221 221 205 211 218 222 230 234 236 238 239 239 239 257 277 291 292 289 281 282
282 216 83 98 108 111 95 99 87 95 95 99 97 104 115 126 131 148 152 162 176 191 202 196 197 182 197 210 210 224 228 230 238 249 262 274 289 288 282 276 274 275 281 288
254 158 81 92 113 103 96 98 73 93 90 97 112 113 100 119 123 114 113 125 133 142 153 169 176 186 189 201 218 229 250 263 268 273 278 278 273 274 279 281 283 287 290 294
169 100 109 88 95 113 96 101 71 100 95 96 101 109 102 109 123 127 133 142 143 152 157 166 187 202 216 223 228 247 266 268 270 272 276 278 280 281 284 286 287 289 293 297
150 163 160 107 91 96 87 87 78 93 95 99 102 112 102 106 110 111 122 127 131 142 159 177 201 222 236 245 246 262 272 280 285 287 285 283 284 287 289 289 291 294 296 298
136 145 141 121 95 105 85 101 84 96 88 105 116 114 147 123 133 124 124 126 130 145 208 240 248 255 260 264 269 274 275 277 282 282 283 283 284 286 290 294 298 299 299 298
144 140 154 133 111 93 92 72 86 90 77 101 127 132 136 134 141 131 137 220 295 295 289 284 280 282 283 281 280 279 277 278 280 282 284 287 289 292 296 298 298 297 297 297
145 133 144 125 121 119 105 84 109 109 96 108 120 123 125 146 152 187 226 254 270 276 276 276 274 273 275 278 280 281 281 281 283 285 289 292 296 297 298 300 300 300 300 300
144 141 136 124 135 131 134 103 113 143 144 125 114 92 119 171 218 248 257 258 265 270 272 273 273 275 275 277 280 282 284 287 290 292 296 297 297 298 298 298 299 299 299 300
Height
5549 5547 5552 5558 5554 5556 5559 5562 5570 5585 5600 5607 5622 5627 5649 5660 5669 5679 5689 5698 5707 5715 5722 5728 5737 5739 5744 5751 5757 5762 5767 5771 5775 5780 5784 5788 5791 5793 5795 5797 5799 5801 5802 5802
5538 5536 5546 5542 5543 5546 5550 5554 5562 5574 5586 5596 5607 5616 5629 5647 5661 5669 5679 5689 5698 5706 5714 5718 5729 5735 5739 5745 5750 5755 5761 5765 5769 5773 5778 5782 5785 5787 5789 5792 5793 5795 5795 5795
5527 5531 5527 5528 5531 5534 5542 5547 5558 5566 5576 5584 5597 5601 5615 5636 5649 5658 5667 5678 5687 5698 5707 5713 5720 5730 5734 5740 5746 5749 5755 5759 5763 5768 5772 5775 5779 5782 5784 5786 5787 5787 5788 5789
5522 5523 5519 5517 5518 5525 5532 5545 5550 5557 5565 5575 5588 5594 5607 5621 5636 5646 5659 5671 5681 5691 5700 5705 5713 5722 5730 5735 5739 5742 5747 5752 5758 5761 5766 5769 5772 5774 5776 5777 5779 5780 5781 5782
5518 5514 5512 5511 5513 5514 5530 5535 5544 5553 5560 5568 5579 5585 5603 5609 5624 5642 5653 5663 5673 5682 5693 5701 5708 5715 5721 5725 5733 5737 5740 5745 5751 5756 5759 5762 5766 5768 5769 5771 5772 5773 5774 5774
5512 5507 5501 5503 5506 5511 5522 5529 5537 5544 5554 5558 5574 5577 5590 5603 5625 5632 5643 5654 5664 5676 5686 5692 5699 5705 5712 5717 5725 5730 5734 5740 5744 5749 5753 5757 5759 5761 5762 5764 5764 5765 5766 5766
5508 5505 5501 5496 5500 5508 5513 5523 5532 5538 5545 5558 5571 5572 5583 5600 5613 5623 5635 5647 5657 5667 5677 5685 5692 5698 5706 5713 5720 5724 5728 5735 5738 5743 5746 5749 5752 5753 5754 5756 5757 5757 5758 5757
5508 5506 5502 5503 5501 5506 5515 5523 5526 5540 5550 5558 5567 5566 5582 5599 5608 5617 5626 5638 5649 5660 5671 5680 5686 5694 5701 5707 5713 5720 5724 5728 5731 5736 5739 5742 5744 5745 5747 5748 5748 5749 5750 5749
5507 5505 5502 5500 5503 5508 5514 5522 5536 5546 5552 5557 5565 5571 5582 5593 5604 5612 5622 5634 5645 5656 5665 5673 5680 5687 5693 5701 5706 5714 5718 5721 5725 5728 5731 5734 5736 5738 5739 5740 5740 5741 5740 5739
5511 5508 5506 5506 5510 5516 5523 5531 5537 5540 5550 5557 5561 5567 5578 5588 5600 5608 5616 5628 5640 5650 5659 5667 5674 5679 5688 5696 5700 5707 5711 5715 5718 5720 5723 5726 5728 5729 5730 5730 5730 5730 5729 5727
5514 5511 5512 5513 5516 5524 5527 5532 5540 5545 5551 5556 5561 5567 5576 5583 5594 5604 5612 5621 5634 5644 5654 5662 5667 5674 5677 5689 5692 5698 5703 5707 5710 5714 5717 5718 5719 5719 5719 5718 5719 5719 5720 5718
5518 5517 5515 5517 5523 5529 5533 5538 5542 5547 5552 5556 5558 5564 5568 5578 5588 5599 5606 5615 5628 5640 5649 5657 5662 5667 5674 5683 5681 5688 5695 5700 5703 5704 5708 5710 5709 5708 5709 5711 5708 5709 5708 5710
5524 5523 5522 5522 5530 5533 5538 5540 5545 5548 5553 5553 5556 5562 5566 5574 5583 5594 5603 5613 5625 5634 5643 5650 5656 5659 5667 5677 5681 5684 5688 5693 5693 5696 5697 5698 5699 5700 5699 5700 5702 5702 5699 5699
5529 5526 5526 5529 5533 5537 5542 5545 5548 5551 5553 5551 5554 5559 5565 5572 5581 5591 5600 5609 5619 5627 5638 5645 5651 5654 5653 5666 5676 5677 5681 5686 5688 5688 5689 5690 5689 5692 5693 5694 5693 5692 5690 5688
5533 5533 5534 5536 5536 5542 5547 5549 5552 5554 5553 5552 5554 5559 5565 5572 5579 5588 5597 5608 5618 5626 5633 5641 5647 5651 5658 5662 5665 5659 5673 5676 5679 5679 5681 5683 5683 5683 5683 5683 5683 5681 5679 5677
5536 5537 5538 5541 5542 5544 5546 5551 5555 5556 5555 5553 5556 5560 5565 5573 5579 5587 5596 5606 5614 5621 5629 5634 5642 5644 5648 5656 5658 5661 5665 5669 5671 5672 5673 5675 5675 5673 5673 5674 5672 5670 5668 5666
5541 5542 5545 5545 5546 5548 5552 5553 5557 5558 5558 5557 5557 5563 5565 5575 5582 5587 5595 5602 5611 5619 5627 5633 5635 5638 5644 5647 5648 5651 5654 5660 5661 5662 5664 5664 5664 5663 5664 5665 5663 5661 5658 5656
5546 5548 5550 5550 5550 5553 5556 5558 5561 5561 5563 5563 5564 5566 5570 5575 5582 5588 5595 5603 5611 5617 5624 5629 5633 5636 5634 5638 5642 5645 5649 5653 5656 5657 5657 5657 5656 5657 5656 5655 5654 5653 5652 5650
5550 5553 5555 5554 5554 5559 5562 5564 5565 5567 5569 5571 5572 5575 5576 5578 5584 5587 5594 5599 5606 5612 5620 5619 5625 5627 5630 5635 5638 5642 5646 5648 5649 5649 5649 5649 5649 5649 5649 5648 5647 5644 5642 5639
5554 5555 5557 5560 5560 5562 5567 5569 5569 5570 5573 5577 5580 5581 5584 5587 5590 5592 5597 5602 5606 5609 5613 5618 5622 5625 5628 5632 5636 5638 5639 5641 5642 5643 5643 5643 5643 5642 5639 5638 5636 5633 5630 5626
5559 5561 5562 5565 5565 5568 5570 5572 5575 5577 5581 5582 5586 5588 5590 5593 5596 5598 5601 5606 5608 5611 5615 5619 5623 5626 5629 5631 5632 5635 5637 5638 5637 5637 5636 5636 5635 5633 5632 5628 5626 5622 5618 5614
5562 5564 5568 5570 5570 5573 5574 5578 5581 5582 5584 5587 5590 5593 5596 5598 5600 5603 5606 5609 5613 5616 5619 5621 5624 5626 5628 5629 5630 5631 5631 5630 5630 5629 5630 5629 5627 5624 5621 5617 5613 5609 5605 5600
5568 5570 5573 5576 5577 5579 5580 5581 5585 5588 5590 5592 5595 5597 5599 5602 5604 5607 5609 5611 5613 5615 5617 5618 5620 5622 5624 5625 5626 5626 5626 5626 5625 5624 5622 5619 5616 5612 5609 5605 5600 5595 5591 5586
5571 5574 5577 5581 5582 5584 5586 5586 5590 5592 5594 5596 5597 5599 5602 5604 5607 5609 5612 5614 5615 5616 5618 5619 5620 5620 5620 5620 5621 5620 5619 5617 5615 5613 5610 5608 5605 5602 5599 5593 5588 5581 5575 5569
5575 5579 5581 5585 5588 5588 5590 5591 5594 5597 5598 5599 5602 5604 5606 5608 5610 5612 5614 5615 5616 5616 5617 5617 5617 5617 5616 5615 5614 5612 5610 5608 5606 5603 5600 5596 5592 5588 5582 5576 5570 5564 5556 5550
5578 5582 5586 5589 5591 5593 5595 5596 5597 5600 5601 5603 5605 5607 5609 5610 5611 5612 5613 5614 5615 5615 5615 5615 5614 5611 5610 5608 5606 5604 5601 5598 5594 5589 5585 5582 5578 5573 5568 5563 5556 5549 5542 5534